Location: Prince Albert
(53.2000°N, 105.7500°W)
Time: 00:30:17
(UTC-06:00)

X-37B - Visible Passes

Search period start: 04 December 2020 00:00
Search period end: 14 December 2020 00:00
Orbit: 384 x 390 km, 45.0° (Epoch: 26 November)

Date Brightness Start Highest point End Pass type
(mag) Time Alt. Az. Time Alt. Az. Time Alt. Az.
04 Dec 3.0 17:49:35 10° SW 17:51:47 17° S 17:54:00 10° SE visible
04 Dec 3.0 19:25:34 10° SW 19:27:33 17° SSW 19:27:33 17° SSW visible
05 Dec 2.9 18:27:05 10° SW 18:29:24 19° S 18:31:42 10° SE visible
06 Dec 3.0 17:28:43 10° SW 17:31:03 19° S 17:33:22 10° SE visible
06 Dec 3.2 19:05:08 10° SW 19:06:57 14° SSW 19:08:12 12° S visible
07 Dec 3.2 18:06:28 10° SW 18:08:38 17° S 18:10:48 10° SSE visible
08 Dec 3.6 18:45:06 10° SW 18:46:08 11° SSW 18:47:11 10° S visible
09 Dec 3.5 17:46:02 10° SW 17:47:51 14° SSW 17:49:40 10° SSE visible
11 Dec 3.9 17:26:00 10° SW 17:27:02 11° SSW 17:28:04 10° S visible
